Regional Weather Roundup
Issued by NWS Sioux Falls, SD

Home | Current Version | Previous Version | Text Only | Print | Product List | Glossary On
Versions: 1 2 3 4 5 6 7 8 9 10 11 12 13 14 15 16 17 18 19 20 21 22 23 24 25 26 27 28 29 30 31 32 33 34 35 36 37 38 39 40 41 42 43 44 45 46 47 48 49 50
000
ASUS43 KFSD 301610
RWRFSD

WEATHER ROUNDUP FOR SE SOUTH DAKOTA/SW MINNESOTA/NW IOWA
NATIONAL WEATHER SERVICE SIOUX FALLS SD
1100 AM CDT THU OCT 30 2014

NOTE: "FAIR" INDICATES FEW OR NO CLOUDS BELOW 12,000 FEET WITH NO
SIGNIFICANT WEATHER AND OR OBSTRUCTIONS TO VISIBILITY.


SDZ038>040-050-052>070-301700-
SOUTHEAST SOUTH DAKOTA

CITY           SKY/WX    TMP DP  RH WIND       PRES   REMARKS
CHAMBERLAIN    SUNNY     46  35  67 NW24      30.20R
HURON          CLOUDY    42  35  76 N21       30.17R
MADISON        FAIR      46  41  81 N15G22    30.10R
MITCHELL       MOSUNNY   47  38  71 N20G28    30.16R
SIOUX FALLS    MOSUNNY   52  38  58 N16       30.08R
WINNER         FAIR      49  35  58 NW24      30.23R
YANKTON        SUNNY     48  39  71 NW18G26   30.12R
$$

MNZ071-072-080-081-089-090-097-098-301700-
SOUTHWEST MINNESOTA

CITY           SKY/WX    TMP DP  RH WIND       PRES   REMARKS
FAIRMONT       CLOUDY    46  30  53 SE5       30.04R
JACKSON        PTSUNNY   46  34  61 NW9       30.05R
LUVERNE        SUNNY     52  34  50 N13       30.07R
MARSHALL       CLOUDY    45  36  70 N10       30.08R
MONTEVIDEO     PTSUNNY   43  43 100 N6        30.11R
PIPESTONE      SUNNY     50  36  57 N9        30.06R
REDWOOD FALLS  CLOUDY    46  39  76 N8        30.08R
TRACY          MOSUNNY   47  40  74 NW10      30.08R
WINDOM         MOSUNNY   48  36  61 N7        30.05R
WORTHINGTON    SUNNY     48  34  57 N13       30.05R
$$

IAZ001>003-012>014-020>022-031-032-NEZ013-014-SDZ071-301700-
NORTHWEST IOWA

CITY           SKY/WX    TMP DP  RH WIND       PRES   REMARKS
CHEROKEE       SUNNY     49  38  66 NW10      30.04R
DENISON        MOSUNNY   50  37  62 NW12      30.02S
ESTHERVILLE    CLOUDY    47  35  63 CALM      30.03R
LE MARS        SUNNY     52  37  58 NW14      30.07R
ORANGE CITY    SUNNY     52  37  58 NW13      30.05R
SHELDON        SUNNY     50  36  57 N15       30.04R
SIOUX CITY     SUNNY     52  37  56 NW17      30.07R
SPENCER        MOSUNNY   50  36  58 N8        30.03R
STORM LAKE     SUNNY     50  36  57 NW12G17   30.03R
$$

ABBREVIATIONS USED IN REMARKS
   TC - TEMPERATURE IN CELSIUS
  WCI - WIND CHILL INDEX
   HX - HEAT INDEX
  VSB - VISIBILITY




USA.gov is the U.S. government's official web portal to all federal, state and local government web resources and services.